N2YJJ-2 Weather Reports


time (UTC)temp
C
wind
direction
speed
KPH
gust
KPH
rain 1hr
cm
rain 24hr
cm
rain mn
cm
humidity
%
barometer
mb
20260509162003 17 170 4.8 12.9 0.00 0.00 0.00 65 1011.5
20260509160004 17 213 3.2 16.1 0.00 0.00 0.00 69 1011.3
20260509155003 18 225 3.2 12.9 0.00 0.00 0.00 66 1011.5
20260509154003 17 153 4.8 14.5 0.00 0.00 0.00 69 1011.7
20260509153004 17 166 4.8 12.9 0.00 0.00 0.00 72 1011.9
20260509152003 16 230 4.8 14.5 0.00 0.00 0.00 71 1012.1
20260509151003 16 304 3.2 11.3 0.00 0.00 0.00 70 1012.2
20260509150005 16 211 3.2 8.0 0.00 0.00 0.00 75 1012.1
20260509145003 15 224 3.2 4.8 0.00 0.00 0.00 78 1012.2
20260509144003 15 261 4.8 4.8 0.00 0.00 0.00 76 1012.2
20260509143004 15 269 3.2 12.9 0.00 0.00 0.00 78 1012.3
20260509142004 15 223 4.8 8.0 0.00 0.00 0.00 78 1012.4
20260509141003 15 262 3.2 4.8 0.00 0.00 0.00 79 1012.4
20260509140004 15 197 3.2 12.9 0.00 0.00 0.00 81 1012.6
20260509135004 14 187 4.8 11.3 0.00 0.00 0.00 82 1012.7
20260509132005 13 162 4.8 8.0 0.00 0.00 0.00 84 1013.0
20260509131005 13 163 3.2 8.0 0.00 0.00 0.00 86 1013.0
20260509130005 12 157 3.2 4.8 0.00 0.00 0.00 86 1013.2
20260509124005 11 195 1.6 4.8 0.00 0.00 0.00 89 1013.2
20260509122004 10 140 0.0 4.8 0.00 0.00 0.00 94 1013.4
20260509121005 9 154 0.0 1.6 0.00 0.00 0.00 95 1013.4
20260509120004 8 125 0.0 0.0 0.00 0.03 0.00 94 1013.3
20260509113005 6 125 0.0 0.0 0.00 0.05 0.00 95 1013.2
20260509111006 5 125 0.0 0.0 0.00 0.08 0.00 96 1013.3
20260509105005 5 125 0.0 0.0 0.00 0.08 0.00 95 1013.5
20260509104006 5 125 0.0 0.0 0.00 0.08 0.00 94 1013.6
20260509102005 5 125 0.0 0.0 0.00 0.08 0.00 94 1013.5
20260509101005 4 125 0.0 0.0 0.00 0.08 0.00 94 1013.3
20260509100005 4 125 0.0 0.0 0.00 0.08 0.00 94 1013.2
20260509095005 4 125 0.0 0.0 0.00 0.08 0.00 94 1013.1
20260509094005 3 125 0.0 0.0 0.00 0.08 0.00 93 1013.2
20260509093005 3 125 0.0 0.0 0.00 0.08 0.00 92 1013.1
20260509092006 3 125 0.0 0.0 0.00 0.08 0.00 92 1013.3
20260509091006 3 125 0.0 0.0 0.00 0.08 0.00 92 1013.4
20260509085007 3 125 0.0 0.0 0.00 0.10 0.00 92 1013.4
20260509083005 4 125 0.0 0.0 0.00 0.10 0.00 92 1013.5
20260509082005 4 125 0.0 0.0 0.00 0.10 0.00 91 1013.5
20260509081007 4 125 0.0 0.0 0.00 0.10 0.00 91 1013.5
20260509080005 4 125 0.0 0.0 0.00 0.10 0.00 90 1013.6
20260509075005 4 125 0.0 0.0 0.00 0.10 0.00 90 1013.7
20260509074006 4 125 0.0 0.0 0.00 0.10 0.00 89 1013.8
20260509073005 4 125 0.0 0.0 0.00 0.10 0.00 89 1013.9
20260509072005 4 125 0.0 0.0 0.00 0.10 0.00 89 1014.0
20260509071006 4 125 0.0 0.0 0.00 0.10 0.00 89 1014.2
20260509070006 4 125 0.0 0.0 0.00 0.10 0.00 88 1014.1
20260509064008 5 125 0.0 1.6 0.00 0.10 0.00 89 1014.3
20260509063006 5 125 1.6 4.8 0.00 0.10 0.00 89 1014.6
20260509062006 5 262 0.0 3.2 0.00 0.10 0.00 90 1014.7
20260509061006 5 167 0.0 0.0 0.00 0.10 0.00 90 1014.8
20260509060006 4 167 0.0 0.0 0.00 0.10 0.00 90 1014.9
20260509055006 4 167 0.0 0.0 0.00 0.10 0.00 89 1014.9
20260509054007 4 167 0.0 0.0 0.00 0.10 0.00 88 1015.0
20260509053006 4 167 0.0 0.0 0.00 0.10 0.00 87 1015.1
20260509052007 4 167 0.0 0.0 0.00 0.10 0.00 88 1015.2
20260509051006 4 167 0.0 0.0 0.00 0.10 0.00 87 1015.4
20260509050007 4 167 0.0 0.0 0.00 0.10 0.00 87 1015.4
20260509045006 4 167 0.0 0.0 0.00 0.10 0.00 87 1015.6
20260509044015 4 167 0.0 0.0 0.00 0.10 0.00 88 1015.5
20260509043007 4 167 0.0 0.0 0.00 0.10 0.00 87 1015.6
20260509042007 5 167 0.0 0.0 0.00 0.10 0.00 87 1015.6
20260509041007 5 167 0.0 0.0 0.00 0.10 0.00 86 1015.8
20260509040007 5 167 0.0 0.0 0.00 0.10 0.00 86 1015.8
20260509035010 5 167 0.0 0.0 0.00 0.10 0.10 86 1016.0
20260509034010 5 167 0.0 0.0 0.00 0.10 0.10 86 1016.1
20260509032002 5 167 0.0 0.0 0.00 0.10 0.10 85 1016.1
20260509031003 6 167 0.0 0.0 0.00 0.10 0.10 84 1016.2
20260509030003 6 167 0.0 0.0 0.00 0.10 0.10 84 1016.2
20260509024004 6 167 0.0 0.0 0.00 0.10 0.10 81 1016.3
20260509022003 6 167 0.0 0.0 0.00 0.13 0.10 78 1016.1
20260509021004 7 167 0.0 0.0 0.00 0.13 0.10 77 1016.0
20260509020003 7 167 0.0 0.0 0.00 0.15 0.10 76 1016.0
20260509015003 7 167 0.0 0.0 0.00 0.15 0.10 75 1016.0
20260509014004 8 167 0.0 0.0 0.00 0.15 0.10 73 1016.0
20260509013003 8 167 0.0 0.0 0.00 0.15 0.10 72 1016.1
20260509011003 9 167 0.0 0.0 0.00 0.15 0.10 68 1016.0
20260509010004 10 167 0.0 0.0 0.00 0.15 0.10 68 1015.9
20260509005003 10 167 0.0 0.0 0.00 0.15 0.10 69 1015.8
20260509004004 10 167 0.0 0.0 0.00 0.15 0.10 66 1015.7
20260509003003 11 167 0.0 0.0 0.00 0.18 0.10 66 1015.6
20260509001004 12 167 0.0 3.2 0.00 0.18 0.10 62 1015.5
20260509000002 12 158 0.0 8.0 0.00 0.18 0.10 59 1015.5
20260508233002 13 243 1.6 4.8 0.00 0.18 0.10 51 1015.5
20260508232002 13 248 3.2 9.7 0.00 0.18 0.10 52 1015.3
20260508231003 13 221 1.6 4.8 0.00 0.18 0.10 49 1015.3
20260508230003 13 248 1.6 4.8 0.00 0.18 0.10 51 1015.3
20260508223002 14 21 1.6 4.8 0.00 0.18 0.10 54 1015.4
20260508222002 14 262 1.6 4.8 0.00 0.18 0.10 50 1015.5
20260508221002 14 244 1.6 4.8 0.00 0.18 0.10 50 1015.4
20260508220002 14 238 3.2 8.0 0.00 0.18 0.10 52 1015.5
20260508215002 14 243 1.6 9.7 0.00 0.18 0.10 47 1015.5
20260508214003 15 256 3.2 8.0 0.00 0.18 0.10 48 1015.6
20260508212002 15 91 1.6 4.8 0.00 0.18 0.10 50 1015.5
20260508211003 15 95 1.6 8.0 0.00 0.18 0.10 51 1015.6
20260508210002 15 224 3.2 4.8 0.00 0.18 0.10 50 1015.6
20260508205003 14 328 1.6 4.8 0.00 0.18 0.10 52 1015.7
20260508204003 14 285 1.6 8.0 0.00 0.18 0.10 46 1015.8
20260508203002 14 192 1.6 11.3 0.00 0.18 0.10 47 1015.9
20260508201003 15 317 3.2 9.7 0.00 0.18 0.10 44 1016.0
20260508200003 15 196 3.2 8.0 0.00 0.18 0.10 43 1016.1
20260508195002 15 158 3.2 4.8 0.00 0.18 0.10 48 1016.3
20260508194002 15 280 3.2 9.7 0.00 0.18 0.10 48 1016.4
20260508193003 15 228 3.2 14.5 0.00 0.18 0.10 54 1016.5
20260508192003 15 145 6.4 12.9 0.00 0.18 0.10 42 1016.6
20260508191002 15 323 3.2 8.0 0.00 0.18 0.10 44 1016.7
20260508190002 15 343 1.6 8.0 0.00 0.18 0.10 45 1017.0
20260508185003 15 325 3.2 9.7 0.00 0.18 0.10 46 1017.0
20260508184003 15 305 3.2 9.7 0.00 0.18 0.10 50 1017.1
20260508183003 15 271 3.2 8.0 0.00 0.18 0.10 54 1017.0
20260508180002 14 306 1.6 9.7 0.00 0.18 0.10 58 1017.1
20260508175003 15 297 1.6 4.8 0.00 0.18 0.10 58 1017.2
20260508174003 14 303 3.2 9.7 0.00 0.18 0.10 59 1017.2
20260508173003 13 340 3.2 8.0 0.00 0.18 0.10 53 1017.4
20260508172004 13 238 3.2 8.0 0.00 0.18 0.10 54 1017.3
20260508171003 13 301 1.6 11.3 0.00 0.18 0.10 64 1017.4
20260508170004 13 246 3.2 8.0 0.00 0.18 0.10 62 1017.5
20260508165003 12 308 3.2 11.3 0.00 0.18 0.10 64 1017.6
20260508164003 12 218 3.2 9.7 0.00 0.18 0.10 63 1017.7
20260508163004 12 286 3.2 11.3 0.00 0.18 0.10 65 1017.8